FALCON 9 DEB (49182 NORAD) Tracking and Keplerian Element Data

This shows tracking and keplerian element data for the satellite.

Feedback or suggestion? Click here.




ElementValue
Catalog49182
NameFALCON 9 DEB
Epoch Orbit324
Epoch Day276.77015674
Epoch Year2021
RAAN69.1789
Inclination69.9694
Eccentricity0.001118
Argument of Perigee127.385
Mean Anonmoly232.8404
Mean Motion16.47180523
Decay Rate0.11475424
L11 49182U 21082BE 21276.77015674 .11475424 44493-5 19550-3 0 9992
L22 49182 69.9694 69.1789 0011180 127.3850 232.8404 16.47180523 3245

Live tracking and technical data element details for FALCON 9 DEB (NORAD 49182). FALCON 9 DEB can be tracked NOW for your location showing map with azimuth and elevation plus other details from your city location.

Track the satellite on the map from your city or location and see movement details for azimuth, elevation, latitude, longitude, range, height, and movement on the map or in text.







IsCatalogInMostPopularTable: catalog: 49182, numindb: 6
Update: records affected: 1



GetName: 49182 FALCON 9 DEB

Hit Count: updated at: Sun, 17 Oct 2021 09:38:21 GMT